User: anonymous
Location: Trois-Rivi�res
(46.3500°N, 72.5500°W)
Time: 15:43:12
(UTC-04:00)
Language:

Cosmos 1544 - Orbit

View from above orbital plane
View from above orbital plane
View from above satellite
View from above satellite

Ground track
Ground track

The orbit data is extracted from the following two-line orbital elements,

1 14819U 84027A   14261.28815461  .00004195  00000-0  20564-3 0   173
2 14819 082.4896 311.2855 0015959 318.6155 159.1027 15.17763327663164
Epoch (UTC): 18 September 2014 06:54:56
Eccentricity: 0.0015959
inclination: 82.4896°
perigee height: 501 km
apogee height: 523 km
right ascension of ascending node: 311.2855°
argument of perigee: 318.6155°
revolutions per day: 15.17763327
mean anomaly at epoch: 159.1027°
orbit number at epoch: 66316

The dashed part of the orbit path shows where the satellite is in the earth's shadow,  

DLR